World > North America > United States > Texas

Sweeny, Texas Regional Weather

Lat: 29.05N, Lon: 95.7W
Wx Zone: TXZ237Web Search

Helpful Tip: Abbreviated, 7 Day, 14 Day Forecasts. There is a weather forecast for every taste.

Feedback


°F Click to change Sweeny hourly weather to Imperial units.Click to change Sweeny hourly weather to Metric units. °C
Sweeny Weather Map
UTC Time: 4/14/2021, 10:40
Your Time:

Sweeny, TX Regional Weather

Expires:202104141100;;533307
ASUS44 KSJT 141015
RWRSJT
WEST CENTRAL TEXAS REGIONAL WEATHER ROUNDUP
NATIONAL WEATHER SERVICE SAN ANGELO TX
500 AM CDT WED APR 14 2021

NOTE: "FAIR" INDICATES FEW OR NO CLOUDS BELOW 12,000 FEET WITH NO
SIGNIFICANT WEATHER AND/OR OBSTRUCTIONS TO VISIBILITY.


TXZ215-216-236-237-438-141100-
THE UPPER TEXAS COAST
  
CITY           SKY/WX    TMP DP  RH WIND       PRES   REMARKS
ORANGE         CLOUDY    74  65  72 S13G23    29.94S                  
PORT ARTHUR    CLOUDY    73  66  78 S16G25    29.90F                  
GALVESTON      CLOUDY    74  69  85 SE21      29.91R                  
ANGLETON       LGT RAIN  73  70  90 S15G22    29.92R FOG              
BAY CITY       CLOUDY    71  71  98 SE6       29.92R FOG              
$$


SKY/WX - Weather  TMP - Temperature  DP - Dew Point  RH - Relative Humidity
WIND - Wind Direction/Speed PRES - Barometric Pressure VSB - Visibility
WCI - Wind Chill Index E13G22 Wind - East Wind 13 mph/Gusts of 22 mph